This is the latest recevied weather packets stored in our database for station/object W0BJ-1. If no packets are shown the sender has not sent any weather packets the latest 10 day(s).
| Time | Temp. | Humidity | Pressure | Rain* | Wind** | Luminosity | Snow |
|---|---|---|---|---|---|---|---|
| 1776934850 | 13.89° C | 91% | 1013.6 hPa | 0 mm | - | 0 W/m² | - |
| 1776934240 | 13.89° C | 91% | 1013.7 hPa | 0 mm | - | 0 W/m² | - |
| 1776931543 | 13.89° C | 91% | 1013.8 hPa | 0 mm | - | 0 W/m² | - |
| 1776930355 | 13.89° C | 92% | 1014 hPa | 0 mm | - | 0 W/m² | - |
| 1776927940 | 13.89° C | 91% | 1014.2 hPa | 0 mm | - | 0 W/m² | - |
| 1776927671 | 13.89° C | 91% | 1014.2 hPa | 0 mm | - | 0 W/m² | - |
| 1776927340 | 13.89° C | 91% | 1014.3 hPa | 0 mm | - | 0 W/m² | - |
| 1776922837 | 13.89° C | 90% | 1014.7 hPa | 0 mm | - | 0 W/m² | - |
| 1776921038 | 13.89° C | 90% | 1014.9 hPa | 0 mm | - | 0 W/m² | - |
| 1776920140 | 13.89° C | 89% | 1014.8 hPa | 0 mm | - | 0 W/m² | - |
| 1776918651 | 14.44° C | 89% | 1014.8 hPa | 0 mm | - | 0 W/m² | - |
| 1776918039 | 14.44° C | 88% | 1014.9 hPa | 0 mm | - | 0 W/m² | - |
| 1776917748 | 14.44° C | 88% | 1014.9 hPa | 0 mm | - | 0 W/m² | - |
| 1776917438 | 14.44° C | 88% | 1015 hPa | 0 mm | - | 0 W/m² | - |
| 1776916241 | 14.44° C | 86% | 1015.1 hPa | 0 mm | - | 0 W/m² | - |
| 1776915949 | 14.44° C | 86% | 1015.1 hPa | 0 mm | - | 0 W/m² | - |
| 1776914152 | 15° C | 84% | 1014.8 hPa | 0 mm | - | 0 W/m² | - |
| 1776913841 | 15.56° C | 84% | 1015 hPa | 0 mm | - | 0 W/m² | - |
| 1776913541 | 15.56° C | 83% | 1015.1 hPa | 0 mm | - | 0 W/m² | - |
| 1776912041 | 16.11° C | 81% | 1015 hPa | 0 mm | - | 0 W/m² | - |
| 1776911450 | 16.67° C | 80% | 1015 hPa | 0 mm | - | 0 W/m² | - |
| 1776911140 | 16.67° C | 79% | 1014.9 hPa | 0 mm | - | 0 W/m² | - |
| 1776910557 | 17.22° C | 78% | 1015 hPa | 0 mm | - | 0 W/m² | - |
| 1776910242 | 17.22° C | 77% | 1015 hPa | 0 mm | - | 0 W/m² | - |
| 1776908444 | 18.89° C | 73% | 1015.1 hPa | 0 mm | - | 0 W/m² | - |
* Rain latest hour (hover to see other rain measurements)
** Current wind speed in m/s (hover to see current wind gust speed)